Orbital Elements at Epoch 2459200.5 (2020-Dec-17.0) TDB
Reference: JPL 19 (heliocentric ecliptic J2000)
Element | Value | Uncertainty (1-sigma) | Units |
e | .1299088993018181 | 4.3226e-08 | |
a | 2.48305316017946 | 9.6802e-09 | au |
q | 2.160482457232645 | 1.0456e-07 | au |
i | 3.682182175316775 | 3.7119e-06 | deg |
node | 356.4302423911508 | 8.5008e-05 | deg |
peri | 61.83178041352885 | 8.7339e-05 | deg |
M | 130.2875936375761 | 2.1633e-05 | deg |
tp | 2458683.276778031890 (2019-Jul-18.77677803) | 8.458e-05 | TDB |
period | 1429.148813865405 3.91 | 8.3573e-06 2.288e-08 | d yr |
n | .2518981903825058 | 1.473e-09 | deg/d |
Q | 2.805623863126274 | 1.0938e-08 | au |
|
| | Orbit Determination Parameters
Additional Information
|